Temp
13 13 14 15 15 15 14 14 14 14 14 14 14 14 14 13 13 13 13 13 12 12 12 13 13 13 13 13 13 13 12 12
13 12 12 14 15 14 14 14 14 14 14 14 14 14 14 13 13 13 13 13 13 12 12 12 12 12 13 13 13 12 12 12
13 12 13 12 12 14 14 14 14 14 14 14 14 13 13 13 13 13 13 13 12 12 12 12 12 12 12 12 12 11 11 12
13 14 14 13 12 14 13 14 13 12 12 13 12 13 12 11 13 13 13 12 12 12 12 12 11 11 11 11 11 10 11 11
14 15 14 14 13 13 12 12 12 13 13 12 12 12 12 11 11 11 12 12 11 11 11 10 11 11 10 11 10 10 10 10
15 15 14 14 13 12 13 12 13 12 12 12 12 11 12 11 11 12 12 11 11 11 10 11 11 11 10 10 10 9 9 9
14 14 14 14 13 13 13 12 12 12 12 12 12 12 12 12 12 11 11 11 10 10 9 9 9 9 8 8 8 8 8 8
13 14 14 13 13 13 13 13 13 13 13 13 13 13 12 11 11 11 10 10 9 8 9 9 8 8 8 8 7 7 7 7
13 13 13 13 13 12 13 13 12 12 11 12 12 12 11 10 10 10 9 9 9 9 9 8 8 8 7 7 7 7 7 6
12 13 13 13 12 13 12 13 12 12 11 12 11 11 11 10 9 9 9 9 8 7 7 7 7 7 7 7 7 7 6 5
13 13 13 12 12 12 11 10 10 11 11 11 11 10 10 9 9 8 8 7 6 6 6 6 6 6 6 6 6 6 6 6
14 13 13 12 11 11 11 10 11 11 11 11 10 10 9 9 8 8 7 6 6 6 5 5 5 5 4 5 5 5 5 5
12 12 12 11 11 11 11 11 11 11 10 10 9 9 8 8 7 6 6 5 4 4 4 4 4 4 3 5 5 5 4 4
11 11 12 12 11 11 10 11 10 10 10 9 9 8 7 6 6 5 4 5 4 3 3 3 4 4 2 3 5 5 5 4
11 11 12 11 11 11 11 11 10 10 9 9 8 7 6 6 6 6 5 4 4 3 3 2 3 3 3 2 3 4 3 3
12 11 11 12 11 10 10 11 10 9 8 7 6 7 6 6 5 5 4 3 3 3 2 1 2 2 2 2 1 1 -0 -0
12 12 10 11 11 10 9 9 8 8 7 6 6 5 5 5 4 3 3 2 2 2 1 1 1 1 1 0 -0 -0 -1 -1
10 10 11 10 9 10 9 8 7 7 6 6 6 5 4 4 3 2 2 2 1 1 1 -0 -0 -1 -1 -1 -2 -2 -1 -2
10 9 9 9 9 9 8 7 6 6 6 6 5 5 4 4 2 2 2 1 1 0 -0 -0 -1 -1 -1 -2 -3 -3 -3 -3
10 9 9 9 8 7 7 6 6 6 5 4 4 3 3 1 1 1 1 0 0 -0 -1 -1 -1 -2 -2 -2 -3 -3 -3 -3
Height
1564 1567 1569 1571 1573 1574 1576 1577 1578 1579 1580 1580 1581 1581 1582 1581 1583 1580 1580 1580 1580 1580 1578 1578 1577 1575 1575 1573 1572 1572 1571 1569
1566 1568 1570 1571 1573 1575 1576 1577 1578 1578 1579 1582 1582 1583 1582 1583 1584 1585 1581 1582 1580 1581 1579 1578 1577 1576 1576 1574 1574 1572 1572 1570
1565 1568 1570 1573 1576 1576 1577 1578 1579 1580 1581 1584 1583 1583 1583 1583 1584 1584 1581 1581 1581 1581 1579 1578 1577 1576 1575 1574 1573 1573 1571 1570
1566 1569 1571 1573 1576 1577 1578 1579 1581 1582 1584 1585 1585 1583 1585 1585 1584 1583 1583 1581 1581 1580 1578 1577 1577 1577 1575 1573 1572 1570 1570 1568
1566 1569 1572 1575 1574 1577 1578 1582 1582 1584 1584 1586 1584 1584 1585 1586 1586 1585 1583 1581 1580 1579 1577 1576 1574 1574 1572 1570 1568 1567 1567 1565
1568 1570 1572 1573 1575 1577 1580 1581 1583 1582 1584 1586 1584 1585 1585 1585 1585 1584 1584 1581 1578 1577 1575 1573 1572 1570 1569 1568 1565 1563 1562 1561
1569 1571 1572 1575 1576 1579 1580 1580 1582 1581 1582 1582 1583 1583 1583 1583 1583 1584 1582 1580 1577 1576 1574 1572 1570 1568 1566 1565 1563 1560 1557 1555
1569 1571 1572 1575 1576 1578 1579 1580 1580 1579 1579 1580 1581 1581 1581 1582 1581 1581 1580 1577 1575 1573 1571 1570 1568 1566 1564 1562 1558 1555 1552 1549
1568 1570 1572 1574 1575 1577 1577 1576 1577 1578 1578 1578 1578 1579 1578 1579 1579 1578 1576 1574 1572 1570 1569 1568 1566 1563 1560 1557 1554 1551 1547 1544
1565 1568 1570 1571 1571 1573 1575 1572 1575 1576 1577 1576 1575 1576 1576 1576 1576 1575 1574 1572 1569 1568 1567 1565 1562 1559 1556 1553 1550 1547 1543 1539
1562 1566 1567 1570 1571 1567 1573 1573 1574 1574 1574 1575 1575 1574 1576 1575 1574 1573 1571 1569 1568 1565 1563 1561 1558 1555 1551 1549 1546 1543 1540 1537
1559 1561 1564 1566 1567 1569 1571 1571 1574 1574 1575 1576 1576 1574 1574 1572 1571 1570 1568 1567 1566 1560 1558 1558 1554 1550 1546 1544 1541 1538 1535 1533
1557 1560 1563 1564 1568 1569 1570 1572 1573 1574 1574 1574 1574 1573 1571 1570 1569 1568 1567 1565 1560 1557 1557 1554 1550 1547 1543 1541 1537 1533 1530 1529
1557 1560 1562 1565 1567 1568 1570 1571 1573 1574 1574 1574 1572 1571 1570 1568 1567 1568 1564 1560 1556 1555 1553 1550 1548 1546 1542 1537 1531 1530 1527 1524
1558 1560 1562 1564 1566 1568 1570 1571 1572 1573 1572 1571 1569 1568 1568 1566 1564 1563 1560 1557 1556 1553 1551 1548 1545 1542 1539 1537 1530 1526 1524 1523
1559 1560 1563 1564 1565 1568 1570 1573 1572 1571 1570 1569 1568 1567 1565 1563 1561 1559 1557 1555 1553 1551 1548 1544 1541 1538 1535 1532 1530 1527 1523 1517
1558 1560 1563 1563 1565 1567 1568 1569 1569 1567 1567 1566 1565 1563 1561 1560 1558 1556 1554 1552 1549 1546 1543 1540 1537 1534 1531 1528 1525 1523 1521 1517
1557 1559 1559 1562 1564 1564 1565 1565 1566 1566 1566 1565 1564 1562 1560 1557 1555 1552 1550 1547 1545 1541 1538 1534 1531 1528 1526 1523 1521 1519 1517 1514
1556 1560 1560 1560 1562 1562 1562 1562 1563 1563 1562 1561 1559 1558 1556 1554 1550 1548 1545 1542 1539 1536 1532 1529 1526 1523 1521 1520 1517 1514 1513 1511
1555 1558 1557 1558 1559 1559 1559 1560 1560 1559 1558 1555 1554 1552 1550 1547 1544 1542 1539 1536 1532 1529 1525 1523 1521 1519 1516 1514 1513 1512 1509 1507
Wind_Speed
14 14 14 12 11 12 13 12 12 11 11 11 10 11 10 10 9 9 10 9 9 9 9 9 9 10 11 12 13 14 11 10
14 13 11 12 13 13 13 13 12 12 12 11 10 9 9 8 6 5 6 6 6 4 4 4 5 7 8 10 11 14 11 10
14 12 12 11 11 13 13 13 13 12 11 9 8 7 6 5 4 3 3 3 1 1 3 4 6 8 8 9 10 9 11 11
12 12 13 14 11 13 13 13 11 9 7 7 4 4 3 3 3 3 4 3 4 5 6 7 6 6 8 10 8 13 11 12
13 14 14 14 13 11 9 8 8 6 5 5 4 3 3 3 3 3 5 5 3 5 6 6 12 10 11 14 13 12 13 14
13 13 14 14 12 9 10 7 7 5 5 4 4 4 6 6 4 6 6 6 8 8 7 13 14 16 17 18 19 17 15 17
13 13 12 11 10 9 7 6 4 6 7 9 8 7 8 8 9 8 9 9 7 8 7 9 12 13 15 18 17 17 18 18
13 13 13 12 10 8 5 7 10 11 13 14 11 12 10 9 10 11 10 9 9 8 13 14 14 16 17 18 21 21 18 19
14 14 14 13 10 6 2 8 8 6 10 11 12 9 8 7 9 8 9 10 10 13 17 14 16 17 19 19 20 19 18 16
16 17 14 13 12 12 13 10 13 12 10 7 4 3 4 6 7 9 9 12 14 14 14 16 16 17 18 18 19 17 17 15
16 18 19 19 14 15 9 8 6 2 3 4 3 4 3 5 7 9 12 13 13 14 15 15 17 17 18 20 19 19 18 16
17 18 20 22 17 18 5 5 5 1 2 2 4 6 7 7 9 13 15 13 12 17 18 16 16 18 19 20 18 21 18 15
14 10 11 7 12 8 11 6 5 2 3 5 6 6 7 8 9 12 14 11 15 16 16 17 18 17 20 22 22 18 13 15
10 9 11 15 14 12 9 10 6 4 5 5 6 7 8 10 12 9 14 15 15 17 17 18 18 17 18 21 21 21 21 13
17 18 20 17 14 12 10 8 5 4 7 8 9 8 9 14 19 22 20 16 15 16 15 15 18 18 17 18 21 20 23 23
20 19 16 15 14 10 8 5 4 7 7 6 5 11 14 18 19 19 17 14 15 16 17 17 17 21 19 19 19 20 19 22
18 16 13 14 12 9 6 5 5 8 6 6 8 10 15 15 14 15 14 17 18 19 18 18 19 18 17 16 16 17 19 20
15 13 15 12 8 7 6 6 3 3 4 6 9 11 12 13 14 15 18 19 20 20 19 18 18 17 16 15 14 15 18 17
13 10 9 8 7 6 5 3 2 3 6 9 11 14 15 17 16 18 21 22 21 20 19 19 18 16 18 18 14 14 15 16
10 10 8 8 5 5 4 2 4 6 8 11 13 14 15 15 16 19 21 21 21 20 19 18 18 19 20 15 13 15 14 15
Wind_Direction
160 158 161 161 162 164 158 152 149 142 134 133 132 129 125 122 123 116 112 103 98 92 86 75 60 46 35 29 24 21 28 21
154 157 153 160 164 162 156 152 148 142 139 139 133 129 125 124 121 115 117 115 114 103 76 56 40 29 20 18 11 14 5 6
159 152 154 158 158 161 154 152 149 143 139 143 137 134 133 135 149 159 152 164 191 308 328 338 344 345 343 348 6 352 356 345
156 155 162 160 155 158 158 154 150 148 150 149 143 149 168 172 214 221 227 241 273 308 319 320 337 332 332 343 340 336 338 338
155 164 162 157 156 156 145 148 155 158 164 178 197 194 242 239 256 270 260 271 290 307 314 310 305 310 315 314 319 331 322 324
156 160 161 160 152 141 150 146 170 172 208 228 236 246 257 252 257 276 283 282 289 294 306 300 306 309 310 310 313 317 312 316
160 165 160 155 151 157 162 175 210 222 236 241 237 253 269 268 271 267 269 283 297 305 316 314 310 311 308 308 309 311 310 311
169 173 174 174 179 180 206 237 246 249 255 264 270 264 256 263 264 268 274 278 294 312 304 308 310 308 307 304 304 305 301 302
182 182 187 193 189 162 50 331 283 295 299 297 288 287 276 272 264 262 278 297 313 309 311 314 309 303 303 303 303 303 300 299
195 197 203 205 196 162 30 353 311 306 325 332 349 318 278 260 273 288 299 309 317 324 321 313 311 307 306 307 302 299 297 295
217 221 215 220 205 184 270 229 318 0 16 2 14 357 311 296 302 310 323 330 327 328 325 321 318 312 310 308 302 299 295 289
220 227 230 222 237 256 202 201 168 138 50 14 341 322 306 311 318 323 330 332 330 330 333 325 325 315 315 311 302 300 290 279
209 227 244 257 227 179 157 152 137 110 334 323 313 300 304 310 329 327 333 333 335 336 331 329 328 317 320 310 307 298 290 279
179 171 133 135 145 143 149 163 178 216 266 278 287 287 297 321 331 335 329 331 334 328 328 327 322 315 313 314 311 298 298 279
146 147 145 146 155 158 168 175 196 258 276 290 295 301 316 317 314 314 317 322 316 316 316 320 313 313 305 308 311 304 300 292
146 149 153 155 154 168 171 225 245 243 257 261 258 280 298 307 314 317 315 311 307 307 306 305 309 307 303 299 294 294 299 299
156 157 160 170 176 186 200 215 245 261 254 256 274 297 305 310 313 312 309 308 303 302 302 300 301 298 298 299 294 290 290 290
166 167 174 182 190 210 215 233 218 241 266 286 296 301 306 309 307 306 306 305 305 300 292 293 292 291 291 293 292 295 295 295
176 174 165 187 204 213 233 199 203 277 287 295 300 300 302 303 296 303 304 302 296 294 291 291 290 288 296 291 288 293 297 295
187 182 178 197 207 226 241 219 272 299 300 300 296 291 291 297 302 303 303 301 296 292 289 289 293 298 289 288 288 292 293 297